Home   Weather   Matsuyama   Past weeks
Flag for Japan

Past Weather in Matsuyama, Japan — Yesterday and Last 2 Weeks

Now
73 °F

Sprinkles. Partly cloudy.


Feels Like: 76 °F
Forecast: 75 / 66 °F
Wind: 15 mph from Southeast

Location: Matsuyama Airport

Current Time: May 19, 2019 at 9:44:55 pm

Latest Report: May 19, 2019 at 9:00 pm


Visibility: N/A

Pressure: 29.89 "Hg

Humidity: 61%

Dew Point: 59 °F

Location of MatsuyamaLocation

Past Weather in Matsuyama — Graph

°F

Matsuyama Temperature Yesterday

Maximum temperature yesterday: 75 °F (at 10:00 am)
Minimum temperature yesterday: 66 °F (at 6:10 am)
Average temperature yesterday: 72 °F

High & Low Weather Summary for the Past Weeks

 TemperatureHumidityPressure
High84 °F (May 17, 1:48 pm)94% (May 6, 8:00 pm)30.09 "Hg (May 6, 8:00 pm)
Low52 °F (May 8, 6:10 am)26% (May 7, 2:00 pm)29.80 "Hg (May 9, 1:00 pm)
Average68 °F64%29.93 "Hg
* Reported May 4 8:00 pm — May 19 8:43 pm, Matsuyama. Weather by CustomWeather, © 2019

Note: Actual official high and low records may vary slightly from our data, if they occured in-between our weather recording intervals... More about our weather records

Advertising

Matsuyama Weather History for the Previous 24 Hours

Scroll right to see more
 ConditionsComfort  
Time TempWeatherWind HumidityBarometerVisibility
8:43 pm
Sun, May 19
73 °FSprinkles. Partly cloudy.18 mph57%29.89 "HgN/A
8:10 pm73 °FThunderstorms. Partly cloudy.15 mph61%29.92 "HgN/A
8:00 pm73 °FPartly cloudy.13 mph61%29.89 "HgN/A
7:00 pm75 °FBroken clouds.12 mph57%29.89 "HgN/A
6:00 pm75 °FBroken clouds.9 mph57%29.89 "HgN/A
5:00 pm75 °FBroken clouds.13 mph57%29.89 "HgN/A
4:00 pm73 °FSprinkles. Broken clouds.12 mph65%29.89 "HgN/A
3:00 pm77 °FBroken clouds.18 mph54%29.89 "HgN/A
2:45 pm77 °FBroken clouds.14 mph54%29.89 "HgN/A
2:00 pm72 °FSprinkles. Broken clouds.9 mph73%29.92 "HgN/A
1:40 pm73 °FSprinkles. Broken clouds.12 mph65%29.92 "HgN/A
1:00 pm73 °FSprinkles. Broken clouds.12 mph61%29.92 "HgN/A
12:00 pm75 °FSprinkles. Broken clouds.13 mph57%29.95 "HgN/A
11:00 am77 °FBroken clouds.13 mph51%29.95 "HgN/A
10:30 am81 °FPartly sunny.9 mph45%29.92 "HgN/A
10:00 am75 °FPartly sunny.13 mph61%29.95 "HgN/A
9:00 am73 °FScattered clouds.9 mph65%29.95 "HgN/A
8:00 am72 °FPassing clouds.14 mph65%29.95 "HgN/A
7:00 am66 °FPassing clouds.10 mph78%29.95 "HgN/A
6:10 am66 °FScattered clouds.6 mph78%29.95 "HgN/A
9:00 pm
Sat, May 18
72 °FPassing clouds.6 mph53%29.95 "HgN/A
Weather by CustomWeather, © 2019

See weather overview